VE7PRT-1 Weather Reports


time (UTC)temp
C
wind
direction
speed
KPH
gust
KPH
rain 1hr
cm
rain 24hr
cm
rain mn
cm
humidity
%
barometer
mb
20260503212954 23 359 3.2 0.0 0.00 0.00 0.00 47 1012.9
20260503211704 23 359 3.2 6.4 0.00 0.00 0.00 49 1013.0
20260503210347 23 359 3.2 4.8 0.00 0.00 0.00 49 1013.2
20260503205038 22 359 3.2 0.0 0.00 0.00 0.00 51 1013.2
20260503203609 22 359 3.2 8.0 0.00 0.00 0.00 53 1013.3
20260503202347 22 359 1.6 0.0 0.00 0.00 0.00 52 1013.4
20260503201052 22 359 1.6 0.0 0.00 0.00 0.00 53 1013.6
20260503195658 22 359 3.2 1.6 0.00 0.00 0.00 53 1013.9
20260503194444 22 359 3.2 12.9 0.00 0.00 0.00 55 1014.0
20260503193239 21 359 1.6 0.0 0.00 0.00 0.00 59 1014.0
20260503191754 20 359 1.6 3.2 0.00 0.00 0.00 60 1014.2
20260503190557 20 359 1.6 0.0 0.00 0.00 0.00 68 1014.1
20260503185247 19 359 0.0 0.0 0.00 0.00 0.00 70 1014.3
20260503183819 19 359 0.0 0.0 0.00 0.00 0.00 71 1014.3
20260503182534 18 359 1.6 0.0 0.00 0.00 0.00 71 1014.3
20260503181154 18 359 0.0 0.0 0.00 0.00 0.00 74 1014.3
20260503175854 18 359 0.0 0.0 0.00 0.00 0.00 76 1014.3
20260503174359 17 359 0.0 0.0 0.00 0.00 0.00 77 1014.4
20260503172949 17 359 4.8 8.0 0.00 0.00 0.00 76 1014.4
20260503171539 19 359 4.8 6.4 0.00 0.00 0.00 70 1014.3
20260503170139 10 359 0.0 0.0 0.00 0.00 0.00 96 1014.4
20260503131019 10 359 0.0 0.0 0.00 0.00 0.00 96 1014.4
20260503120104 10 359 0.0 0.0 0.00 0.00 0.00 96 1014.4
20260503110747 11 359 0.0 0.0 0.00 0.00 0.00 96 1014.4
20260503090424 11 359 0.0 0.0 0.00 0.00 0.00 95 1014.6
20260503081319 12 359 0.0 0.0 0.00 0.00 0.00 95 1014.7
20260503072209 12 359 0.0 0.0 0.00 0.00 0.00 94 1015.0
20260503070729 12 359 0.0 0.0 0.00 0.00 0.00 94 1014.9
20260503054214 13 359 0.0 0.0 0.00 0.00 0.00 89 1014.8
20260503052924 14 359 0.0 0.0 0.00 0.00 0.00 88 1014.8
20260503051714 15 359 0.0 0.0 0.00 0.00 0.00 87 1014.8
20260503050234 15 359 0.0 0.0 0.00 0.00 0.00 86 1014.8
20260503044839 16 359 0.0 0.0 0.00 0.00 0.00 85 1014.7
20260503043559 16 359 0.0 0.0 0.00 0.00 0.00 84 1014.6
20260503042247 17 359 1.6 0.0 0.00 0.00 0.00 81 1014.6
20260503040929 17 359 1.6 0.0 0.00 0.00 0.00 81 1014.6
20260503035704 17 359 3.2 1.6 0.00 0.00 0.00 78 1014.5
20260503034307 18 359 0.0 0.0 0.00 0.00 0.00 74 1014.4
20260503033009 19 359 0.0 0.0 0.00 0.00 0.00 71 1014.5
20260503031544 20 359 0.0 0.0 0.00 0.00 0.00 70 1014.5
20260503030239 20 359 0.0 0.0 0.00 0.00 0.00 67 1014.5
20260503024834 20 359 0.0 0.0 0.00 0.00 0.00 66 1014.5
20260503023614 20 359 0.0 0.0 0.00 0.00 0.00 66 1014.5
20260503022327 21 359 0.0 1.6 0.00 0.00 0.00 65 1014.5
20260503020931 21 359 0.0 0.0 0.00 0.00 0.00 65 1014.6
20260503015624 22 359 1.6 0.0 0.00 0.00 0.00 63 1014.7
20260503014207 22 359 0.0 0.0 0.00 0.00 0.00 61 1014.8
20260503012827 23 359 1.6 8.0 0.00 0.00 0.00 59 1014.8
20260503011447 23 359 1.6 0.0 0.00 0.00 0.00 58 1014.8
20260503010144 24 359 1.6 0.0 0.00 0.00 0.00 58 1014.8
20260503004714 24 359 1.6 0.0 0.00 0.00 0.00 59 1014.9
20260503003447 23 359 1.6 1.6 0.00 0.00 0.00 59 1015.0
20260503002047 22 359 1.6 0.0 0.00 0.00 0.00 60 1015.1
20260503000842 23 359 6.4 3.2 0.00 0.00 0.00 59 1015.3
20260502235407 23 359 4.8 6.4 0.00 0.00 0.00 58 1015.4
20260502234149 23 359 4.8 3.2 0.00 0.00 0.00 58 1015.5
20260502232739 23 359 4.8 1.6 0.00 0.00 0.00 58 1015.6
20260502231307 23 359 3.2 0.0 0.00 0.00 0.00 62 1015.7
20260502225927 23 359 4.8 4.8 0.00 0.00 0.00 61 1016.0
20260502224427 23 359 4.8 3.2 0.00 0.00 0.00 62 1016.3
20260502223227 22 359 4.8 0.0 0.00 0.00 0.00 65 1016.4
20260502221919 21 359 6.4 6.4 0.00 0.00 0.00 65 1016.5
20260502220534 21 359 6.4 9.7 0.00 0.00 0.00 68 1016.6
20260502215239 20 359 6.4 8.0 0.00 0.00 0.00 73 1016.8
20260502214014 18 359 6.4 4.8 0.00 0.00 0.00 75 1017.0